User: anonymous   Login
Location: *
(47.6569°N, 7.4256°E)
Time: 14:52:01
(UTC+00:00)
Language:

IRIDIUM 114 - Orbit

View from above orbital plane
View from above orbital plane
View from above satellite
View from above satellite

Ground track
Ground track

The orbit data is extracted from the following two-line orbital elements,

1 41923U 17003G   20048.78498083 +.00000065 +00000-0 +16110-4 0  9995
2 41923 086.4007 334.3050 0001887 091.6564 268.4848 14.34219244161977
Epoch (UTC): 17 February 2020 18:50:22
Eccentricity: 0.0001887
inclination: 86.4007°
perigee height: 776 km
apogee height: 779 km
right ascension of ascending node: 334.3050°
argument of perigee: 91.6564°
revolutions per day: 14.34219244
mean anomaly at epoch: 268.4848°
orbit number at epoch: 16197

The dashed part of the orbit path shows where the satellite is in the earth's shadow,  

DLR